Location: Newark
(47.5833°N, 8.1500°E)
Time: 15:41:13
(UTC+00:00)

Tiros 1 - Pass Details

Date: 05 November 2020
Orbit: 630 x 664 km, 48.4° (Epoch: 29 November)

Event Time Altitude Azimuth Distance (km) Brightness Sun altitude
Exits shadow 02:38:42 16° 84° (E) 1,631 9.8 -37.0°
Drops below altitude 10° 02:39:41 10° 85° (E) 2,009 10.4 -36.8°
Sets 02:42:01 0° 87° (E) 2,916 11.4 -36.4°
